Terug naar catalogus

DELTA 1 DEB

ActiefSSO
NORAD 7033·DEBRIS·🇺🇸 United States

Gelanceerd Nov 6, 1973 vanaf Vandenberg Space Force Base

Loading…

Volgende Passages (komende 24 uur)

TLE

VersSource: Space-Track

Epoch: Sep 14, 2026, 13:02 UTC

1 07033U 73086Z   26257.54334964 -.00000018  00000-0  17606-3 0  9990
2 07033 101.5754 280.0162 0026385 129.7549  25.1424 12.41930035388586

Volg DELTA 1 DEB in realtime met AllMySat

Download on the App Store